Flag for Switzerland Weather past 2 weeks in Sarnen, Obwalden, Switzerland

Now
77 °F

Warm.


Feels Like: 78 °F
Forecast: 64 / 80 °F
Wind: 1 mph from Southeast

Location: Giswil

Current Time: Aug 31, 2015 at 1:12:21 PM

Latest Report: Aug 31, 2015 at 12:00 PM


Visibility: N/A

Pressure: 29.99 "Hg

Humidity: 44%

Dew point: 53 °F

Location of SarnenLocation

Historic Weather in Sarnen — Graph

°F

Sarnen temperature yesterday

Maximum temperature yesterday: 89 °F (at 3:00 PM)
Minimum temperature yesterday: 59 °F (at 6:00 AM)
Average temperature yesterday: 72 °F

Past Weeks' High & Low Weather Summary

 TemperatureHumidityPressure
High89 °F (Aug 30, 3:00 PM)100% (Aug 21, 3:00 AM)30.29 "Hg (Aug 21, 3:00 AM)
Low47 °F (Aug 20, 7:00 AM)31% (Aug 30, 4:00 PM)29.70 "Hg (Aug 24, 2:00 PM)
Average63 °F81%30.03 "Hg
* Reported Aug 16 11:00 AM — Aug 31 11:00 AM, Sarnen, Weather by CustomWeather, © 2015

Note: Actual official high and low records may vary slightly from our data, if they occured in-between our weather recording intervals... More about our weather records

Advertising

Sarnen weather history for previous 24 hours

 ConditionsComfort  
Time TempWeatherWind HumidityBarometerVisibility
11:00 AM
Mon, Aug 31
74 °FMild.1 mph47%30.01 "HgN/A
10:00 AM69 °FMild.1 mph56%30.04 "HgN/A
9:00 AM65 °FMild.1 mph71%30.06 "HgN/A
8:00 AM53 °FCool.1 mph91%30.10 "HgN/A
7:00 AM51 °FCool.3 mph95%30.11 "HgN/A
6:00 AM51 °FCool.1 mph94%30.11 "HgN/A
5:00 AM53 °FCool.1 mph91%30.10 "HgN/A
4:00 AM54 °FCool.2 mph92%30.09 "HgN/A
3:00 AM55 °FCool.2 mph92%30.08 "HgN/A
2:00 AM55 °FCool.2 mph93%30.09 "HgN/A
1:00 AM58 °FCool.1 mph89%30.09 "HgN/A
12:00 AM62 °FCool.1 mph83%30.09 "HgN/A
11:00 PM
Sun, Aug 30
64 °FMild.2 mph81%30.09 "HgN/A
10:00 PM66 °FMild.3 mph79%30.08 "HgN/A
9:00 PM68 °FMild.3 mph76%30.06 "HgN/A
8:00 PM71 °FMild.5 mph72%30.03 "HgN/A
7:00 PM81 °FWarm.5 mph48%29.99 "HgN/A
6:00 PM87 °FPleasantly warm.1 mph38%29.97 "HgN/A
5:00 PM88 °FHot.2 mph34%29.97 "HgN/A
4:00 PM89 °FHot.5 mph31%29.98 "HgN/A
3:00 PM89 °FHot.3 mph32%30.01 "HgN/A
2:00 PM85 °FWarm.2 mph44%30.04 "HgN/A
1:00 PM83 °FWarm.1 mph51%30.07 "HgN/A
Weather by CustomWeather, © 2015

See weather overviewHow to use our weather pages